Location: Anmer
(52.8333°N, 0.5833°E)
Time: 12:01:23
(UTC+00:00)

Cosmos 1726 Rocket - Pass Details

Date: 15 May 2026
Orbit: 555 x 661 km, 82.5° (Epoch: 5 June)

Event Time Altitude Azimuth Distance (km) Brightness Sun altitude
Exits shadow 21:25:49 17° 151° (SSE) 1,461 4.8 -11.3°
Maximum altitude 21:28:28 36° 92° (E) 900 4.1 -11.5°
Drops below altitude 10° 21:32:11 10° 26° (NNE) 1,855 6.4 -11.8°
Sets 21:34:29 0° 18° (NNE) 2,762 7.5 -12.0°
